When you browse on this site, cookies collect data to enhance your experience and personalize the content and advertising you see.
Visit our Privacy Policy to learn more. By continuing to use the site, you agree to this use of cookies and data.
  • In Germany
  • List of Countries
  • For 7 days
  • Water Temperature
  • Satellite Maps
  • Weather Map
  • Weather Widgets
  • user-avatar
    Login

    Hourly Weather Annaba

    Today, 25 April, Thursday

    Time Temperature Precipitation Wind Pressure Humidity
    00:00 +15°C° 0.2 mm 1 mps 760 mmHg 93%
    01:00 +13°C° 0 mm 0 mps 760 mmHg 93%
    02:00 +13°C° 0 mm 0 mps 760 mmHg 93%
    03:00 +13°C° 0 mm 0 mps 760 mmHg 93%
    04:00 +13°C° 0 mm 0 mps 759 mmHg 92%
    05:00 +13°C° 0 mm 0 mps 760 mmHg 90%
    06:00 +14°C° 0 mm 0 mps 760 mmHg 88%
    07:00 +15°C° 0 mm 0 mps 760 mmHg 83%
    08:00 +19°C° 0 mm 1 mps 760 mmHg 77%
    09:00 +21°C° 0 mm 1 mps 760 mmHg 71%
    10:00 +23°C° 0 mm 1 mps 760 mmHg 65%
    11:00 +24°C° 0 mm 2 mps 760 mmHg 62%
    12:00 +25°C° 0 mm 2 mps 760 mmHg 59%
    13:00 +26°C° 0 mm 2 mps 760 mmHg 57%
    14:00 +26°C° 0 mm 3 mps 760 mmHg 58%
    15:00 +25°C° 0 mm 3 mps 759 mmHg 60%
    16:00 +25°C° 0 mm 3 mps 759 mmHg 61%
    17:00 +23°C° 0 mm 2 mps 759 mmHg 67%
    18:00 +20°C° 0 mm 2 mps 760 mmHg 74%
    19:00 +19°C° 0 mm 1 mps 760 mmHg 80%
    20:00 +19°C° 0 mm 1 mps 760 mmHg 82%
    21:00 +16°C° 0 mm 0 mps 761 mmHg 85%
    22:00 +15°C° 0 mm 0 mps 762 mmHg 88%
    23:00 +15°C° 0 mm 0 mps 762 mmHg 88%

    Tomorrow, 26 April, Friday

    Time Temperature Precipitation Wind Pressure Humidity
    00:00 +16°C° 0 mm 1 mps 762 mmHg 89%
    01:00 +15°C° 0 mm 1 mps 762 mmHg 90%
    02:00 +15°C° 0 mm 2 mps 762 mmHg 90%
    03:00 +15°C° 0 mm 2 mps 762 mmHg 91%
    04:00 +15°C° 0 mm 2 mps 762 mmHg 92%
    05:00 +15°C° 0 mm 2 mps 763 mmHg 90%
    06:00 +16°C° 0 mm 2 mps 763 mmHg 87%
    07:00 +16°C° 0 mm 2 mps 763 mmHg 85%
    08:00 +18°C° 0 mm 2 mps 764 mmHg 74%
    09:00 +20°C° 0 mm 2 mps 764 mmHg 63%
    10:00 +23°C° 0 mm 2 mps 764 mmHg 53%
    11:00 +24°C° 0 mm 3 mps 764 mmHg 52%
    12:00 +24°C° 0 mm 3 mps 764 mmHg 51%
    13:00 +25°C° 0 mm 4 mps 764 mmHg 51%
    14:00 +23°C° 0 mm 4 mps 764 mmHg 55%
    15:00 +22°C° 0 mm 5 mps 764 mmHg 59%
    16:00 +22°C° 0 mm 5 mps 764 mmHg 63%
    17:00 +20°C° 0 mm 4 mps 764 mmHg 68%
    18:00 +19°C° 0 mm 3 mps 764 mmHg 72%
    19:00 +17°C° 0 mm 3 mps 764 mmHg 77%
    20:00 +16°C° 0 mm 2 mps 765 mmHg 80%
    21:00 +15°C° 0 mm 2 mps 766 mmHg 84%
    22:00 +14°C° 0 mm 1 mps 766 mmHg 87%
    23:00 +14°C° 0 mm 1 mps 766 mmHg 87%

    Day after tomorrow, 27 April, Saturday

    Time Temperature Precipitation Wind Pressure Humidity
    00:00 +14°C° 0 mm 1 mps 766 mmHg 88%
    01:00 +13°C° 0 mm 1 mps 766 mmHg 88%
    02:00 +13°C° 0 mm 2 mps 766 mmHg 88%
    03:00 +13°C° 0 mm 2 mps 766 mmHg 88%
    04:00 +12°C° 0 mm 2 mps 766 mmHg 88%
    05:00 +13°C° 0 mm 2 mps 766 mmHg 85%
    06:00 +13°C° 0 mm 2 mps 766 mmHg 82%
    07:00 +14°C° 0 mm 2 mps 766 mmHg 79%
    08:00 +16°C° 0 mm 2 mps 766 mmHg 71%
    09:00 +17°C° 0 mm 2 mps 766 mmHg 62%
    10:00 +19°C° 0 mm 2 mps 767 mmHg 53%
    11:00 +20°C° 0 mm 2 mps 766 mmHg 52%
    12:00 +20°C° 0 mm 3 mps 766 mmHg 51%
    13:00 +21°C° 0 mm 4 mps 766 mmHg 49%
    14:00 +21°C° 0 mm 4 mps 766 mmHg 50%
    15:00 +20°C° 0 mm 4 mps 766 mmHg 50%
    16:00 +20°C° 0 mm 3 mps 765 mmHg 51%
    17:00 +19°C° 0 mm 3 mps 765 mmHg 57%
    18:00 +17°C° 0 mm 2 mps 766 mmHg 63%
    19:00 +16°C° 0 mm 2 mps 766 mmHg 69%
    20:00 +15°C° 0 mm 1 mps 766 mmHg 73%
    21:00 +14°C° 0 mm 1 mps 766 mmHg 77%
    22:00 +13°C° 0 mm 1 mps 767 mmHg 81%
    23:00 +12°C° 0 mm 1 mps 767 mmHg 81%

    28 April, Sunday

    Time Temperature Precipitation Wind Pressure Humidity
    00:00 +12°C° 0 mm 1 mps 767 mmHg 81%
    01:00 +12°C° 0 mm 2 mps 766 mmHg 81%
    02:00 +12°C° 0 mm 2 mps 766 mmHg 81%
    03:00 +10°C° 0 mm 2 mps 766 mmHg 80%
    04:00 +10°C° 0 mm 2 mps 765 mmHg 80%
    05:00 +12°C° 0 mm 2 mps 765 mmHg 76%
    06:00 +12°C° 0 mm 2 mps 765 mmHg 72%
    07:00 +13°C° 0 mm 2 mps 765 mmHg 68%
    08:00 +15°C° 0 mm 2 mps 765 mmHg 62%
    09:00 +17°C° 0 mm 2 mps 765 mmHg 56%
    10:00 +20°C° 0 mm 1 mps 765 mmHg 50%
    11:00 +20°C° 0 mm 2 mps 764 mmHg 49%
    12:00 +21°C° 0 mm 2 mps 764 mmHg 49%
    13:00 +21°C° 0 mm 2 mps 763 mmHg 48%
    14:00 +21°C° 0 mm 3 mps 763 mmHg 51%
    15:00 +21°C° 0 mm 3 mps 763 mmHg 53%
    16:00 +21°C° 0 mm 3 mps 762 mmHg 56%
    17:00 +19°C° 0 mm 3 mps 762 mmHg 63%
    18:00 +18°C° 0 mm 3 mps 762 mmHg 71%
    19:00 +16°C° 0 mm 3 mps 762 mmHg 78%
    20:00 +15°C° 0 mm 2 mps 762 mmHg 82%
    21:00 +14°C° 0 mm 1 mps 763 mmHg 85%
    22:00 +13°C° 0 mm 1 mps 763 mmHg 88%
    23:00 +13°C° 0 mm 1 mps 763 mmHg 89%

    29 April, Monday

    Time Temperature Precipitation Wind Pressure Humidity
    00:00 +12°C° 0 mm 0 mps 763 mmHg 89%
    01:00 +11°C° 0 mm 0 mps 762 mmHg 90%
    02:00 +11°C° 0 mm 0 mps 762 mmHg 90%
    03:00 +11°C° 0 mm 0 mps 762 mmHg 90%
    04:00 +11°C° 0 mm 0 mps 762 mmHg 91%
    05:00 +12°C° 0 mm 0 mps 762 mmHg 89%
    06:00 +12°C° 0 mm 0 mps 762 mmHg 86%
    07:00 +13°C° 0 mm 0 mps 762 mmHg 84%
    08:00 +16°C° 0 mm 1 mps 762 mmHg 76%
    09:00 +19°C° 0 mm 1 mps 762 mmHg 68%
    10:00 +20°C° 0 mm 1 mps 762 mmHg 60%
    11:00 +20°C° 0 mm 2 mps 761 mmHg 58%
    12:00 +21°C° 0 mm 3 mps 761 mmHg 56%
    13:00 +21°C° 0 mm 3 mps 760 mmHg 53%
    14:00 +21°C° 0 mm 3 mps 760 mmHg 54%
    15:00 +21°C° 0 mm 4 mps 760 mmHg 54%
    16:00 +21°C° 0 mm 4 mps 759 mmHg 54%
    17:00 +19°C° 0 mm 3 mps 760 mmHg 60%
    18:00 +18°C° 0 mm 3 mps 760 mmHg 66%
    19:00 +16°C° 0 mm 2 mps 760 mmHg 71%
    20:00 +15°C° 0 mm 2 mps 760 mmHg 75%
    21:00 +14°C° 0 mm 1 mps 761 mmHg 79%
    22:00 +13°C° 0 mm 1 mps 761 mmHg 83%
    23:00 +13°C° 0 mm 1 mps 761 mmHg 83%

    30 April, Tuesday

    Time Temperature Precipitation Wind Pressure Humidity
    00:00 +13°C° 0 mm 1 mps 760 mmHg 84%
    01:00 +13°C° 0 mm 1 mps 760 mmHg 84%
    02:00 +13°C° 0 mm 1 mps 760 mmHg 85%
    03:00 +12°C° 0 mm 1 mps 759 mmHg 86%
    04:00 +12°C° 0 mm 1 mps 759 mmHg 86%
    05:00 +13°C° 0 mm 1 mps 759 mmHg 82%
    06:00 +14°C° 0 mm 1 mps 759 mmHg 79%
    07:00 +15°C° 0 mm 2 mps 759 mmHg 75%
    08:00 +17°C° 0 mm 2 mps 759 mmHg 69%
    09:00 +18°C° 0 mm 2 mps 758 mmHg 63%
    10:00 +20°C° 0 mm 3 mps 758 mmHg 57%
    11:00 +21°C° 0 mm 3 mps 758 mmHg 56%
    12:00 +22°C° 0 mm 4 mps 757 mmHg 55%
    13:00 +23°C° 0 mm 4 mps 757 mmHg 54%
    14:00 +23°C° 0 mm 4 mps 757 mmHg 55%
    15:00 +22°C° 0 mm 4 mps 756 mmHg 56%
    16:00 +22°C° 0 mm 4 mps 756 mmHg 57%
    17:00 +20°C° 0 mm 4 mps 756 mmHg 62%
    18:00 +19°C° 0 mm 3 mps 756 mmHg 67%
    19:00 +17°C° 0 mm 2 mps 756 mmHg 72%
    20:00 +16°C° 0 mm 2 mps 756 mmHg 75%
    21:00 +15°C° 0 mm 1 mps 757 mmHg 79%
    22:00 +14°C° 0 mm 1 mps 757 mmHg 83%
    23:00 +14°C° 0 mm 1 mps 757 mmHg 83%
    Show more